Location: Foligno
(42.9600°N, 12.7050°E)
Time: 18:24:00
(UTC+01:00)

ISS - Visible Passes

Search period start: 21 November 2017 00:00
Search period end: 01 December 2017 00:00
Orbit: 402 x 407 km, 51.6° (Epoch: 22 November)

Date Brightness Start Highest point End Pass type
(mag) Time Alt. Az. Time Alt. Az. Time Alt. Az.
26 Nov -2.0 18:23:17 10° SSW 18:25:06 21° SSE 18:25:06 21° SSE visible
27 Nov -1.6 17:32:10 10° SSE 17:33:52 14° SE 17:35:12 11° ESE visible
27 Nov -1.3 19:06:40 10° WSW 19:07:52 21° WSW 19:07:52 21° WSW visible
28 Nov -3.8 18:14:24 10° SW 18:17:37 57° SE 18:17:52 55° ESE visible
29 Nov -2.7 17:22:25 10° SSW 17:25:21 30° SE 17:27:47 13° E visible
29 Nov -1.7 18:58:39 10° W 19:00:26 26° WNW 19:00:26 26° WNW visible
30 Nov -3.6 18:06:03 10° WSW 18:09:18 64° NNW 18:10:16 40° NE visible
